Weather History for PAWG - November, 2013

Change the Weather History Date:

Thursday, November 21, 2013

  Actual Average Record
Temperature  
Mean Temperature 32 °F -  
Max Temperature 41 °F 38 °F 53 °F (1949)
Min Temperature 26 °F 28 °F 10 °F (1963)
Degree Days  
Heating Degree Days 32    
Moisture  
Dew Point 31 °F    
Average Humidity 84    
Maximum Humidity 87    
Minimum Humidity 75    
Precipitation  
Precipitation 1.95 in - - ()
Sea Level Pressure  
Sea Level Pressure 30.19 in    
Wind  
Wind Speed 9 mph (ENE)    
Max Wind Speed 22 mph    
Max Gust Speed 29 mph    
Visibility 5 miles    
Events Snow    
Averages and records for this station are not official NWS values.
T = Trace of Precipitation, MM = Missing Value Source: NWS Daily Summary

Daily Weather History Graph

Daily Weather History Graph

Search for Another Location

Airport or City:

Trip Planner

Search our weather history database for the weather conditions in past years. The results will help you decide how hot, cold, wet, or windy it might be!

Date:

Astronomy

Nov. 21, 2013 Rise Set
Actual Time 7:41 AM AKST 3:28 PM AKST
Civil Twilight 6:57 AM AKST 4:13 PM AKST
Nautical Twilight 6:09 AM AKST 5:00 PM AKST
Astronomical Twilight 5:25 AM AKST 5:45 PM AKST
Moon 7:20 PM AKST (11/21) 10:46 AM AKST (11/21)
Length of Visible Light 9h 15m
Length of Day
7h 47m
Waning Gibbous, 84% of the Moon is Illuminated
Nov 21
Waning Gibbous
Nov 25
Last Quarter
Dec 2
New
Dec 9
First Quarter
Dec 17
Full

Hourly Weather History & Observations

Time (AKST) Temp. Windchill Dew Point Humidity Pressure Visibility Wind Dir Wind Speed Gust Speed Precip Events Conditions
12:16 AM 26.6 °F 21.2 °F 23.0 °F 86% 30.11 in 2.0 mi NNW 4.6 mph - N/A   Overcast
12:36 AM 26.6 °F 18.2 °F 23.0 °F 86% 30.10 in 2.5 mi NW 8.1 mph - N/A   Overcast
12:56 AM 26.6 °F 21.2 °F 23.0 °F 86% 30.10 in 2.0 mi NNW 4.6 mph - N/A   Overcast
1:16 AM 28.4 °F 21.2 °F 23.0 °F 80% 30.10 in 2.5 mi NW 6.9 mph - N/A   Overcast
1:36 AM 28.4 °F 23.3 °F 24.8 °F 86% 30.09 in 2.5 mi North 4.6 mph - N/A   Overcast
1:56 AM 28.4 °F 20.4 °F 24.8 °F 86% 30.09 in 2.5 mi NNW 8.1 mph - N/A   Overcast
2:16 AM 28.4 °F 20.4 °F 24.8 °F 86% 30.09 in 2.0 mi NNW 8.1 mph - N/A   Overcast
2:36 AM 30.2 °F 25.4 °F 26.6 °F 86% 30.09 in 2.0 mi North 4.6 mph - N/A   Overcast
2:56 AM 32.0 °F - 28.4 °F 87% 30.09 in 2.5 mi Calm Calm - N/A   Overcast
3:16 AM 32.0 °F 28.7 °F 26.6 °F 80% 30.09 in 4.0 mi NW 3.5 mph - N/A   Overcast
3:36 AM 33.8 °F 29.6 °F 28.4 °F 81% 30.09 in 8.0 mi West 4.6 mph - N/A   Overcast
3:56 AM 33.8 °F 29.6 °F 28.4 °F 81% 30.09 in 9.0 mi West 4.6 mph - N/A   Overcast
4:16 AM 32.0 °F 25.6 °F 26.6 °F 80% 30.09 in 7.0 mi WNW 6.9 mph - N/A   Overcast
4:36 AM 33.8 °F 27.7 °F 28.4 °F 81% 30.08 in 9.0 mi WNW 6.9 mph - N/A   Overcast
4:56 AM 32.0 °F 24.2 °F 26.6 °F 80% 30.09 in 8.0 mi WNW 9.2 mph - N/A   Overcast
6:45 AM 32.0 °F 26.4 °F 28.4 °F 87% 30.09 in 7.0 mi West 5.8 mph - N/A Snow Light Snow
7:36 AM 32.0 °F 24.8 °F 28.4 °F 87% 30.09 in 7.0 mi West 8.1 mph - N/A   Overcast
7:56 AM 33.8 °F 27.0 °F 28.4 °F 81% 30.10 in 7.0 mi NNW 8.1 mph - N/A   Overcast
8:16 AM 30.2 °F 21.3 °F 26.6 °F 86% 30.10 in 7.0 mi NW 10.4 mph - N/A   Overcast
8:36 AM 32.0 °F 24.8 °F 26.6 °F 80% 30.11 in 3.0 mi NW 8.1 mph - N/A   Overcast
8:56 AM 32.0 °F 27.5 °F 26.6 °F 80% 30.11 in 3.0 mi WNW 4.6 mph - 0.06 in   Overcast
9:16 AM 32.0 °F 24.8 °F 26.6 °F 80% 30.12 in 3.0 mi WNW 8.1 mph - 0.02 in   Overcast
10:56 AM 35.6 °F 32.8 °F 30.2 °F 81% 30.15 in 3.0 mi NW 3.5 mph - N/A   Overcast
11:16 AM 35.6 °F 32.8 °F 30.2 °F 81% 30.15 in 4.0 mi NW 3.5 mph - N/A   Overcast
11:36 AM 35.6 °F - 30.2 °F 81% 30.16 in 4.0 mi Calm Calm - N/A   Overcast
11:56 AM 35.6 °F 31.7 °F 30.2 °F 81% 30.16 in 4.0 mi SSE 4.6 mph - 0.15 in   Overcast
12:16 PM 35.6 °F 32.8 °F 30.2 °F 81% 30.17 in 4.0 mi SE 3.5 mph - 0.07 in   Overcast
12:36 PM 37.4 °F 32.8 °F 30.2 °F 75% 30.18 in 4.0 mi ESE 5.8 mph - 0.15 in   Overcast
12:56 PM 37.4 °F 28.5 °F 32.0 °F 81% 30.17 in 4.0 mi East 15.0 mph 20.7 mph 0.23 in   Overcast
1:16 PM 37.4 °F 28.2 °F 33.8 °F 87% 30.17 in 4.0 mi East 16.1 mph 23.0 mph 0.12 in   Overcast
1:36 PM 37.4 °F 27.8 °F 33.8 °F 87% 30.18 in 4.0 mi East 17.3 mph 25.3 mph 0.24 in   Overcast
1:56 PM 37.4 °F 27.2 °F 33.8 °F 87% 30.17 in 4.0 mi East 19.6 mph 26.5 mph 0.36 in   Overcast
2:16 PM 37.4 °F 26.6 °F 32.0 °F 81% 30.18 in 4.0 mi East 21.9 mph 28.8 mph 0.13 in   Overcast
2:36 PM 37.4 °F 26.6 °F 33.8 °F 87% 30.18 in 4.0 mi East 21.9 mph 27.6 mph 0.27 in   Overcast
2:56 PM 37.4 °F 26.9 °F 33.8 °F 87% 30.19 in 4.0 mi East 20.7 mph 26.5 mph 0.40 in   Overcast
3:16 PM 37.4 °F 26.9 °F 33.8 °F 87% 30.20 in 4.0 mi East 20.7 mph 27.6 mph 0.10 in   Overcast
3:36 PM 39.2 °F 29.3 °F 33.8 °F 81% 30.20 in 4.0 mi East 20.7 mph 24.2 mph 0.20 in   Overcast
3:56 PM 39.2 °F 29.8 °F 33.8 °F 81% 30.21 in 4.0 mi East 18.4 mph 25.3 mph 0.29 in   Overcast
4:16 PM 39.2 °F 29.8 °F 33.8 °F 81% 30.22 in 4.0 mi ESE 18.4 mph 27.6 mph 0.07 in   Overcast
4:36 PM 39.2 °F 29.3 °F 33.8 °F 81% 30.22 in 4.0 mi East 20.7 mph 24.2 mph 0.13 in   Overcast
4:56 PM 39.2 °F 29.8 °F 35.6 °F 87% 30.23 in 4.0 mi East 18.4 mph - 0.18 in   Overcast
5:16 PM 39.2 °F 29.6 °F 35.6 °F 87% 30.24 in 4.0 mi East 19.6 mph 25.3 mph 0.04 in   Overcast
5:36 PM 39.2 °F 29.6 °F 33.8 °F 81% 30.25 in 4.0 mi East 19.6 mph 24.2 mph 0.09 in   Overcast
5:56 PM 39.2 °F 30.5 °F 33.8 °F 81% 30.26 in 6.0 mi East 16.1 mph 24.2 mph 0.12 in   Overcast
6:16 PM 39.2 °F 31.2 °F 35.6 °F 87% 30.27 in 6.0 mi East 13.8 mph 21.9 mph 0.03 in   Overcast
6:36 PM 37.4 °F 28.5 °F 33.8 °F 87% 30.27 in 6.0 mi East 15.0 mph 20.7 mph 0.05 in   Overcast
6:56 PM 39.2 °F 30.8 °F 33.8 °F 81% 30.27 in 6.0 mi East 15.0 mph 23.0 mph 0.07 in   Overcast
7:16 PM 39.2 °F 31.2 °F 35.6 °F 87% 30.29 in 6.0 mi East 13.8 mph 24.2 mph N/A   Overcast
7:36 PM 39.2 °F 30.8 °F 35.6 °F 87% 30.29 in 6.0 mi East 15.0 mph - 0.01 in   Overcast
7:56 PM 39.2 °F 30.5 °F 35.6 °F 87% 30.29 in 6.0 mi East 16.1 mph - 0.01 in   Overcast
8:16 PM 39.2 °F 31.2 °F 35.6 °F 87% 30.30 in 6.0 mi ESE 13.8 mph - N/A   Overcast
8:36 PM 39.2 °F 32.5 °F 35.6 °F 87% 30.32 in 6.0 mi ESE 10.4 mph - N/A   Overcast
8:56 PM 39.2 °F 33.6 °F 35.6 °F 87% 30.32 in 8.0 mi ESE 8.1 mph - 0.01 in   Overcast
9:16 PM 39.2 °F 31.6 °F 35.6 °F 87% 30.32 in 6.0 mi ESE 12.7 mph - N/A   Overcast
9:36 PM 39.2 °F 32.0 °F 35.6 °F 87% 30.32 in 6.0 mi ESE 11.5 mph - N/A   Overcast
9:56 PM 39.2 °F 31.6 °F 35.6 °F 87% 30.33 in 6.0 mi ESE 12.7 mph - N/A   Mostly Cloudy
10:16 PM 39.2 °F 32.0 °F 35.6 °F 87% 30.33 in 6.0 mi East 11.5 mph - 0.01 in   Overcast
10:36 PM 39.2 °F 32.0 °F 35.6 °F 87% 30.34 in 6.0 mi East 11.5 mph 17.3 mph 0.01 in   Overcast
10:56 PM 39.2 °F 33.0 °F 35.6 °F 87% 30.34 in 6.0 mi East 9.2 mph 16.1 mph 0.01 in   Overcast
11:16 PM 39.2 °F 32.0 °F 35.6 °F 87% 30.35 in 4.0 mi East 11.5 mph 17.3 mph 0.02 in   Overcast
11:36 PM 39.2 °F 32.5 °F 35.6 °F 87% 30.35 in 5.0 mi ESE 10.4 mph 16.1 mph 0.04 in   Overcast
11:56 PM 41.0 °F 35.8 °F 37.4 °F 87% 30.36 in 3.0 mi ESE 8.1 mph 16.1 mph 0.04 in   Overcast